Fitchburg, MA

4:39 PM EDT on April 25, 2017 (GMT -0400)
Fitchburg Municipal

Weather History for KFIT - April, 2013

Change the Weather History Date:

Wednesday, April 17, 2013

  Actual Average (KORH) Record (KORH)
Temperature  
Mean Temperature 58 °F -  
Max Temperature 66 °F 57 °F 90 °F (2002)
Min Temperature 46 °F 38 °F 21 °F (1928)
Degree Days  
Heating Degree Days 7    
Growing Degree Days 8 (Base 50)    
Moisture  
Dew Point 34 °F    
Average Humidity 47    
Maximum Humidity 82    
Minimum Humidity 23    
Precipitation  
Precipitation 0.00 in - - ()
Sea Level Pressure  
Sea Level Pressure 30.20 in    
Wind  
Wind Speed 9 mph (NW)    
Max Wind Speed 16 mph    
Max Gust Speed 23 mph    
Visibility 10 miles    
Events      
Averages and records for this station are not official NWS values.
T = Trace of Precipitation, MM = Missing Value Source: NWS Daily Summary

Daily Weather History Graph

Daily Weather History Graph

Search for Another Location

Airport or City:

Trip Planner

Search our weather history database for the weather conditions in past years. The results will help you decide how hot, cold, wet, or windy it might be!

Date:

Astronomy

Apr. 17, 2013 Rise Set
Actual Time 6:02 AM EDT 7:31 PM EDT
Civil Twilight 5:32 AM EDT 8:01 PM EDT
Nautical Twilight 4:57 AM EDT 8:36 PM EDT
Astronomical Twilight 4:19 AM EDT 9:14 PM EDT
Moon 11:10 AM EDT (4/17) 1:10 AM EDT (4/17)
Length of Visible Light 14h 28m
Length of Day
13h 29m
Waxing Crescent, 42% of the Moon is Illuminated
Apr 17
Waxing Crescent
Apr 18
First Quarter
Apr 25
Full
May 2
Last Quarter
May 9
New

Hourly Weather History & Observations

Time (EDT) Temp. Dew Point Humidity Pressure Visibility Wind Dir Wind Speed Gust Speed Precip Events Conditions
12:52 AM 57.9 °F 51.1 °F 78% 30.08 in 10.0 mi SW 11.5 mph 19.6 mph 0.00 in   Overcast
1:52 AM 57.9 °F 52.0 °F 81% 30.09 in 10.0 mi West 9.2 mph 17.3 mph N/A   Overcast
2:20 AM 57.2 °F 51.8 °F 82% 30.08 in 10.0 mi West 9.2 mph - N/A   Overcast
2:52 AM 55.9 °F 42.1 °F 60% 30.10 in 10.0 mi WNW 16.1 mph 23.0 mph N/A   Overcast
3:52 AM 54.0 °F 41.0 °F 62% 30.11 in 10.0 mi WNW 11.5 mph 19.6 mph N/A   Overcast
4:52 AM 53.1 °F 42.1 °F 66% 30.12 in 10.0 mi NW 4.6 mph - N/A   Overcast
5:52 AM 51.1 °F 41.0 °F 68% 30.13 in 10.0 mi WNW 6.9 mph - N/A   Scattered Clouds
6:52 AM 51.1 °F 39.9 °F 66% 30.16 in 10.0 mi North 8.1 mph - N/A   Clear
7:52 AM 53.1 °F 39.0 °F 59% 30.18 in 10.0 mi NW 8.1 mph - N/A   Clear
8:52 AM 54.0 °F 35.1 °F 49% 30.20 in 10.0 mi NNW 11.5 mph 20.7 mph N/A   Clear
9:52 AM 55.9 °F 33.1 °F 42% 30.21 in 10.0 mi NNW 10.4 mph - N/A   Clear
10:52 AM 57.9 °F 28.9 °F 33% 30.21 in 10.0 mi NW 11.5 mph - N/A   Clear
11:52 AM 62.1 °F 30.0 °F 30% 30.20 in 10.0 mi NW 12.7 mph 17.3 mph N/A   Clear
12:52 PM 63.0 °F 28.0 °F 27% 30.19 in 10.0 mi North 5.8 mph - N/A   Clear
1:52 PM 64.0 °F 27.0 °F 25% 30.18 in 10.0 mi NNW 12.7 mph 18.4 mph N/A   Clear
2:52 PM 64.9 °F 27.0 °F 24% 30.19 in 10.0 mi NW 6.9 mph 18.4 mph N/A   Clear
3:52 PM 66.0 °F 27.0 °F 23% 30.19 in 10.0 mi WNW 6.9 mph - N/A   Clear
5:52 PM 64.9 °F 26.1 °F 23% 30.23 in 10.0 mi North 12.7 mph - N/A   Clear
6:52 PM 62.1 °F 26.1 °F 25% 30.26 in 10.0 mi North 9.2 mph - N/A   Clear
7:52 PM 57.9 °F 26.1 °F 30% 30.29 in 10.0 mi North 8.1 mph - N/A   Clear
8:52 PM 54.0 °F 26.1 °F 34% 30.31 in 10.0 mi NNW 5.8 mph - N/A   Clear
9:52 PM 51.1 °F 28.0 °F 41% 30.32 in 10.0 mi NW 3.5 mph - N/A   Clear
10:52 PM 50.0 °F 27.0 °F 41% 30.34 in 10.0 mi North 4.6 mph - N/A   Clear
11:52 PM 46.0 °F 30.0 °F 54% 30.35 in 10.0 mi Calm Calm - N/A   Clear